Regional Weather Roundup
Issued by NWS Charleston, SC

Current Version | Previous Version | Text Only | Print | Product List | Glossary Off
Versions: 1 2 3 4 5 6 7 8 9 10 11 12 13 14 15 16 17 18 19 20 21 22 23 24 25 26 27 28 29 30 31 32 33 34 35 36 37 38 39 40 41 42 43 44 45 46 47 48 49 50

000
ASUS42 KCHS 310112
RWRCHS

REGIONAL WEATHER ROUNDUP
NATIONAL WEATHER SERVICE CHARLESTON SC
900 PM EDT SUN AUG 30 2015

NOTE: "FAIR" INDICATES FEW OR NO CLOUDS BELOW 12,000 FEET WITH NO
SIGNIFICANT WEATHER AND/OR OBSTRUCTIONS TO VISIBILITY.

NOT ALL STATIONS ARE QUALITY CONTROLLED BY THE NATIONAL
WEATHER SERVICE. USE DATA WITH CAUTION...ESPECIALLY
DEWPOINT OBSERVATIONS.

SCZ027-030-031-034>040-042>050-310200-
...SOUTHEAST SOUTH CAROLINA...

CITY           SKY/WX    TMP DP  RH WIND       PRES   REMARKS
N CHARLESTON   CLOUDY    75  72  90 E8        30.08F
WATERFRONT PRK   N/A     78  76  94 E16       30.06S
MOUNT PLEASANT FAIR      75  73  94 E6        30.09F
JOHNS ISLAND   LGT RAIN  77  75  94 E9G15     30.08F
PINOPOLIS        N/A     75  72  88 E5        30.04R
MONCKS CORNER  MOCLDY    75  72  88 CALM      30.10S
SUMMERVILLE    CLOUDY    73  73 100 CALM      30.10S
BEAUFORT MCAS  RAIN      76  74  93 E14       30.05F
BEAUFORT ARPT  RAIN      75  75 100 SE5       30.04F
HILTON HEAD IS CLOUDY    77  75  94 SE7       30.06S
WALTERBORO     CLOUDY    75  72  88 NE5       30.09F
ALLENDALE      CLOUDY    75  73  94 CALM      30.08S

...SOUTHERN MIDLANDS AND PEE DEE...

CITY           SKY/WX    TMP DP  RH WIND       PRES   REMARKS
GEORGETOWN     NOT AVBL
KINGSTREE      NOT AVBL
ORANGEBURG     LGT RAIN  75  71  87 E3        30.11R
BARNWELL       CLOUDY    75  73  94 CALM      30.11S
AIKEN          LGT RAIN  66  64  94 NW6       30.15S
MANNING        MOCLDY    72  72 100 CALM      30.11S
COLUMBIA       CLOUDY    73  70  90 E5        30.12R
SUMTER         CLOUDY    72  70  94 NE7       30.11R
FLORENCE       CLOUDY    71  70  96 E6        30.13R
MYRTLE BEACH   NOT AVBL
N MYRTLE BEACH LGT RAIN  73  71  93 NE3       30.12S

$$

GAZ063-065-086>088-099>101-113>116-118-119-134>141-150-310200-
...SOUTHEAST GEORGIA...

CITY           SKY/WX    TMP DP  RH WIND       PRES   REMARKS
SAVANNAH ARPT  LGT RAIN  75  73  93 E7        30.06R FOG
HUNTER AAF     DRIZZLE   76  76 100 E3        30.02S
FORT STEWART   CLOUDY    75  73  94 CALM      30.03R
STATESBORO     CLOUDY    74  32  21 NE3       30.06F
SYLVANIA       CLOUDY    76  76 100 CALM      30.08S
CLAXTON        NOT AVBL

...CSRA...CENTRAL AND FAR SOUTHEAST GEORGIA...

CITY           SKY/WX    TMP DP  RH WIND       PRES   REMARKS
THOMSON        MOCLDY    72  72 100 CALM      30.13F
AUGUSTA-BUSH   HVY RAIN  70  69  97 NE3       30.10R FOG
AUGUSTA-DANIEL LGT RAIN  75  67  76 E5        30.12R
SWAINSBORO     FAIR     N/A N/A N/A CALM      30.08S
VIDALIA        MOCLDY    75  72  88 E5        30.06R
EASTMAN        FAIR      76  76 100 E5        30.07S
HAZLEHURST     FAIR      78  77  95 E5        30.03S
ALMA           PTCLDY    77  72  84 E5        30.03S
WAYCROSS       MOCLDY    80  78  95 E5        30.02S
JESUP          MOCLDY    79  77  94 E3        30.04R
BAXLEY         FAIR      77  73  88 CALM      30.04R
BRUNSWICK      CLOUDY    77  75  94 CALM      30.03S
SAINT SIMONS   CLOUDY    79  75  87 S8G20     30.02S

$$

SCZ027-028-034-036>038-045-046-048>050-GAZ119-141-310200-
...LAKE AND SUPPLEMENTAL COASTAL OBSERVATIONS...

STATION/POSITION TIME  TEMP    WIND        PRES    WAVE   SWELL
                       AIR SEA DIR/SP/G            HT/PER HT/PER/DIR
                 (UTC) (F)     (DEG/KT/KT) (MB)    (FT/S) (FT/S/D)
UPR LAKE MARION  NOT AVBL
WINYAH BAY       2345   75     110/  6     1018.0
LAKE MURRAY      0000   72      50/  3/  7 1019.0S
ACE BASIN NERRS  NOT AVBL
FORT PULASKI     NOT AVBL
SAPELO ISLAND    0000   77     130/  7     1017.0S

$$

ANZ835-935-AMZ111-154-330-350-352-354-370-450-454-472-310200-
...C-MAN AND BUOY OBSERVATIONS...

STATION/POSITION TIME  TEMP    WIND        PRES    WAVE   SWELL
                       AIR SEA DIR/SP/G            HT/PER HT/PER/DIR
                 (UTC) (F)     (DEG/KT/KT) (MB)    (FT/S) (FT/S/D)
BUOY 41004       0050   78 84  100/ 17/ 19 1018.7R   5/11   3/11
BUOY 41008       0050   79 84  150/ 19/ 23 1016.7F   5/ 5   3/110/10
FOLLY BEACH CMAN 0000   78     100/ 17/ 19 1019.1R
CAPERS NEARSHORE 0008   78     110/ 17/ 23 1019.3R
FRIPP NEARSHORE  0000   79     100/ 19/ 23 1017.3F


STATION/POSITION TIME  TEMP    WIND        PRES    WAVE   SWELL
                       AIR SEA DIR/SP/G            HT/PER HT/PER/DIR
                 (UTC) (F)     (DEG/KT/KT) (MB)    (FT/S) (FT/S/D)
5E ST. MARYS GA  0021      86                N/A     6/11   2/100/11
FRYING PAN BUOY  0050   79 82  170/  4/  6 1020.9R   3/10   3/130/10
BUOY 41025       0050   78 80   CALM  /  2 1020.5R   3/11   3/110/11
CAPE LOOKOUT NC  0000   78     240/  3/  3 1020.1R
BUOY 41002       0050   84 84  180/  8/ 10 1020.5R   5/ 9   5/140/ 9
BUOY 41010       0020   84 86  140/ 14/ 17 1017.4R
ST AUGUSTINE FL  0100   79 84  100/ 12/ 13 1017.1R


$$


USA.gov is the U.S. government's official web portal to all federal, state and local government web resources and services.